Location: Malijai
(44.0461°N, 6.0319°E)
Time: 15:44:43
(UTC+00:00)

Daily predictions for brighter satellites

Satellite Brightness Start Highest point End
(mag) Time Altitude Azimuth Time Altitude Azimuth Time Altitude Azimuth
RESURS DK-1 2.5 16:27:22 10° SSW 16:31:29 79° WNW 16:35:38 10° NNE
NOSS 0 Rocket 4.1 16:28:21 10° S 16:34:25 59° ESE 16:40:33 10° NNE
H-2A R/B 3.2 16:31:45 10° SE 16:35:09 36° ENE 16:38:34 10° N
Cosmos 1689 Rocket 3.5 16:35:32 10° N 16:38:24 39° WNW 16:41:14 10° SW
Feng Yun 1-1 Rocket 4.2 16:39:08 10° SSE 16:44:26 62° ENE 16:49:46 10° N
COSMOS 2428 3.2 16:39:10 10° SW 16:44:47 62° WNW 16:50:27 10° NNE
FALCON 9 DEB 4.0 16:47:10 10° SSW 16:50:24 36° SE 16:53:03 14° ENE
Meteor 1-5 Rocket 4.2 16:45:46 10° N 16:51:20 89° W 16:56:41 10° S
Cosmos 1536 3.1 16:48:27 10° N 16:52:21 46° ENE 16:56:11 10° SSE
Cosmos 1862 Rocket 3.5 16:48:14 10° S 16:52:33 72° E 16:56:56 10° NNE
ATLAS 2AS CENTAUR R/B 4.2 16:48:20 10° W 16:55:34 36° NW 17:02:47 10° NNE
Genesis I 4.3 16:52:30 10° NNW 16:55:44 24° NE 16:58:25 12° E
Cosmos 1703 Rocket 4.5 16:51:58 10° SSE 16:55:46 28° E 16:59:36 10° NNE
Okean O Rocket 3.4 16:53:46 10° SSW 16:57:45 35° W 17:01:45 10° NNW
Cosmos 1092 Rocket 4.2 16:55:39 10° SSE 17:01:40 49° E 17:07:39 10° NNE
Lacrosse 5 rocket 2.1 16:58:35 10° WSW 17:02:44 45° NW 17:06:10 13° NE
Cosmos 1666 3.1 16:59:15 10° N 17:02:47 38° ENE 17:06:16 10° SSE
Cosmos 2242 Rocket 3.7 17:00:01 10° S 17:04:29 60° E 17:09:01 10° NNE
Aureole 1 Rocket 2.7 17:07:06 10° S 17:09:52 37° ESE 17:11:21 22° NE
SL-4 R/B 3.1 17:07:29 10° WNW 17:10:52 30° N 17:13:11 17° NE
CZ-4 R/B 2.2 17:07:45 10° SE 17:11:00 26° ENE 17:14:14 10° NNE
Cosmos 2278 Rocket 2.5 17:07:31 10° NNW 17:13:10 71° WSW 17:18:46 10° SSE
Okean 1 4.5 17:10:11 10° SE 17:13:18 22° E 17:13:59 21° ENE
FengYun 1-2 T 4.4 17:08:39 10° SE 17:13:50 45° ENE 17:19:03 10° N
STARLINK-52 3.6 17:11:06 10° SW 17:14:27 47° SE 17:16:09 25° ENE
Okean-O 2.5 17:11:23 10° SSE 17:15:47 67° ENE 17:20:11 10° N
Shenzhou-11 Module 2.2 17:13:11 10° W 17:15:54 56° S 17:17:18 24° ESE
NOSS 7 (D) 4.1 17:14:43 10° NW 17:17:46 88° SW 17:21:15 10° SE
SMAP 3.5 17:13:16 10° S 17:17:54 66° W 17:22:32 10° NNW
NOAA 12 4.0 17:14:54 10° SSE 17:20:12 80° ENE 17:25:30 10° NNW
STARLINK-29 3.3 17:19:07 10° SW 17:22:36 63° SE 17:24:05 31° ENE
USA 215 3.9 17:17:57 14° NE 17:23:22 47° NNW 17:29:33 10° W
Cosmos 2369 Rocket 3.6 17:22:02 10° N 17:25:28 18° NE 17:25:28 18° NE
SL-16 R/B 2.5 17:22:03 10° S 17:27:26 46° ESE 17:30:56 21° NE
Cosmos 1743 3.3 17:24:54 10° N 17:28:26 33° ENE 17:31:56 10° SE
Cosmos 1908 Rocket 3.4 17:24:15 10° N 17:28:41 83° E 17:33:01 10° S
ISS -2.3 17:26:05 10° WNW 17:29:14 37° SW 17:32:22 10° SSE
Cosmos 2251 Rocket 4.4 17:26:29 10° SW 17:31:36 48° WNW 17:36:43 10° N
Cosmos 614 Rocket 4.2 17:27:28 10° S 17:32:19 46° ESE 17:34:59 24° NE
Cosmos 1174 4.4 17:27:41 10° SSW 17:32:45 51° ESE 17:34:31 31° ENE
COSMO-SKYMED 1 2.6 17:29:40 16° NNE 17:33:02 56° E 17:37:18 10° S
Cosmos 2333 Rocket 4.0 17:31:55 10° WSW 17:36:43 27° NW 17:41:33 10° N
Cosmos 2237 Rocket 2.7 17:32:22 10° SW 17:37:58 59° WNW 17:43:32 10° NNE
STARLINK-60 3.3 17:34:43 10° WSW 17:38:05 62° NNW 17:38:58 42° NNE
YAOGAN 1 2.8 17:34:47 10° SE 17:38:52 43° ENE 17:42:59 10° N
Envisat 3.1 17:37:21 10° S 17:42:25 77° WSW 17:47:32 10° NNW
Cosmos 1428 Rocket 4.4 17:36:47 10° S 17:42:50 63° E 17:49:00 10° NNE
YAOGAN 6 2.4 17:39:45 10° SSE 17:43:17 80° ENE 17:46:53 10° N
Okean 1-7 2.9 17:39:01 10° S 17:43:19 76° E 17:46:42 17° NNE
Cosmos 292 Rocket 4.0 17:40:19 10° NNW 17:45:12 74° WSW 17:50:01 10° SSE
Cosmos 1553 Rocket 4.1 17:41:39 10° N 17:47:50 51° ENE 17:54:02 10° SSE
Cosmos 1140 Rocket 3.7 17:44:42 10° S 17:49:32 43° ESE 17:50:28 39° ENE
Cosmos 2219 Rocket 4.3 17:47:01 10° W 17:51:14 21° NW 17:55:30 10° N
Cosmos 407 Rocket 3.4 17:47:27 10° S 17:52:35 68° ESE 17:55:06 31° NNE
CZ-4 R/B 4.4 17:51:16 10° SSE 17:55:26 88° W 17:59:38 10° NNW
USA 267 4.2 17:51:15 10° SSE 17:57:29 47° SW 18:03:46 10° WNW
Cosmos 1023 Rocket 4.4 17:55:13 10° S 18:00:09 56° ESE 18:01:02 49° ENE
Cosmos 2026 Rocket 3.9 17:55:01 10° S 18:01:04 84° W 18:07:11 10° N
Cosmos 1943 Rocket 2.9 17:59:02 10° N 18:03:07 33° NNE 18:03:07 33° NNE
USA 229 DEB 4.5 18:00:44 10° NNW 18:07:11 34° NE 18:07:49 34° NE
USA 229 4.5 18:00:51 10° NNW 18:07:17 34° NE 18:07:53 34° NE
BREEZE-M R/B 3.7 18:05:36 10° WNW 18:09:04 34° NNW 18:09:04 34° NNW
Cosmos 1867 3.5 18:04:56 10° NNW 18:10:20 57° NE 18:10:41 56° ENE
CSL-04 Rocket 3.5 18:05:19 10° SSE 18:10:35 88° ENE 18:15:55 10° NNW
Cosmos 1441 Rocket 4.4 18:09:37 10° NNW 18:13:15 42° W 18:16:49 10° SSW
Cosmos 921 Rocket 3.4 18:10:36 10° NNW 18:14:50 62° WSW 18:19:07 10° S
Cosmos 2297 3.9 18:11:28 10° NNW 18:17:09 70° WSW 18:22:46 10° SSE
Cosmos 1417 Rocket 4.3 18:12:57 10° N 18:19:06 82° E 18:25:15 10° S
Cosmos 2221 Rocket 4.0 18:19:07 10° S 18:22:36 54° S 18:22:36 54° S
Sich 1 Rocket 4.1 18:20:37 10° NNW 18:24:56 57° W 18:29:14 10° S
CSL-04 Debris 4.4 18:21:36 10° S 18:27:02 68° WSW 18:32:28 10° NNW
Meteor 1-18 Rocket 4.4 18:22:30 10° SSW 18:28:12 69° WNW 18:31:58 22° N
Cosmos 1655 Rocket 3.9 18:28:07 10° S 18:34:26 86° E 18:37:01 39° N
Cosmos 1241 Rocket 4.4 18:34:29 10° SSW 18:40:36 73° SE 18:40:36 73° SE
Lacrosse 5 rocket 3.8 18:40:10 10° NW 18:41:49 15° NNW 18:41:49 15° NNW
CZ-4 R/B 3.5 18:42:46 10° SSW 18:45:59 24° W 18:49:12 10° NW
Meteor 2-9 Rocket 4.4 18:40:37 10° NNW 18:46:28 72° W 18:52:13 10° S
Cosmos 676 Rocket 4.4 18:42:45 10° SSW 18:46:54 57° SW 18:46:54 57° SW
SL-4 R/B 4.5 18:47:45 10° NW 18:48:47 16° NW 18:48:47 16° NW
USA 215 4.4 19:05:18 29° N 19:05:27 29° N 19:10:53 10° WNW
Cosmos 2369 Rocket 3.8 19:04:56 10° NNW 19:07:18 26° NNW 19:07:18 26° NNW
CZ-4C R/B 4.5 19:06:27 10° SSW 19:06:34 11° SSW 19:06:34 11° SSW
SL-16 R/B 3.7 19:06:45 10° WSW 19:11:44 30° NW 19:12:51 28° NNW
Cosmos 2344 4.3 19:31:04 10° NW 19:40:45 81° NE 19:40:45 81° NE
Cosmos 1943 Rocket 4.4 19:42:49 10° NW 19:44:42 20° NW 19:44:42 20° NW
